| time (UTC) | temp F | wind direction | speed MPH | gust MPH | rain 1hr in | rain 24hr in | rain mn in | humidity % | barometer mb |
| 20260509233018 | 77 | 83 | 1.0 | 4.0 | 0.00 | 0.00 | 0.00 | 34 | 1015.0 |
| 20260509231516 | 77 | 112 | 0.0 | 2.0 | 0.00 | 0.00 | 0.00 | 33 | 1015.2 |
| 20260509230016 | 78 | 152 | 1.0 | 4.0 | 0.00 | 0.00 | 0.00 | 33 | 1015.4 |
| 20260509224513 | 77 | 208 | 1.0 | 3.0 | 0.00 | 0.00 | 0.00 | 32 | 1015.5 |
| 20260509223012 | 78 | 77 | 1.0 | 4.0 | 0.00 | 0.00 | 0.00 | 31 | 1015.7 |
| 20260509221509 | 76 | 259 | 0.0 | 3.0 | 0.00 | 0.00 | 0.00 | 33 | 1015.9 |
| 20260509220009 | 76 | 271 | 0.0 | 3.0 | 0.00 | 0.00 | 0.00 | 34 | 1016.3 |
| 20260509214503 | 75 | 124 | 0.0 | 4.0 | 0.00 | 0.00 | 0.00 | 35 | 1016.5 |
| 20260509213003 | 74 | 299 | 1.0 | 4.0 | 0.00 | 0.00 | 0.00 | 35 | 1016.6 |
| 20260509211501 | 74 | 136 | 1.0 | 4.0 | 0.00 | 0.00 | 0.00 | 36 | 1016.8 |
| 20260509210108 | 74 | 292 | 3.0 | 7.0 | 0.00 | 0.00 | 0.00 | 36 | 1017.0 |
| 20260509204558 | 74 | 316 | 1.0 | 3.0 | 0.00 | 0.00 | 0.00 | 36 | 1017.0 |
| 20260509203112 | 74 | 296 | 1.0 | 5.0 | 0.00 | 0.00 | 0.00 | 36 | 1017.1 |
| 20260509201556 | 74 | 138 | 1.0 | 3.0 | 0.00 | 0.00 | 0.00 | 37 | 1017.3 |
| 20260509200054 | 73 | 252 | 0.0 | 4.0 | 0.00 | 0.00 | 0.00 | 38 | 1017.5 |
| 20260509194551 | 72 | 88 | 0.0 | 2.0 | 0.00 | 0.00 | 0.00 | 37 | 1017.8 |
| 20260509193049 | 70 | 257 | 1.0 | 5.0 | 0.00 | 0.00 | 0.00 | 38 | 1018.2 |
| 20260509191556 | 69 | 96 | 0.0 | 3.0 | 0.00 | 0.00 | 0.00 | 41 | 1018.3 |
| 20260509190050 | 69 | 117 | 2.0 | 4.0 | 0.00 | 0.00 | 0.00 | 41 | 1018.5 |
| 20260509184548 | 68 | 293 | 1.0 | 3.0 | 0.00 | 0.00 | 0.00 | 40 | 1018.7 |
| 20260509183048 | 67 | 340 | 0.0 | 5.0 | 0.00 | 0.00 | 0.00 | 41 | 1018.9 |
| 20260509181535 | 66 | 109 | 2.0 | 4.0 | 0.00 | 0.00 | 0.00 | 44 | 1019.0 |
| 20260509180033 | 65 | 186 | 0.0 | 4.0 | 0.00 | 0.00 | 0.00 | 43 | 1019.1 |
| 20260509174530 | 65 | 295 | 0.0 | 3.0 | 0.00 | 0.00 | 0.00 | 45 | 1019.3 |
| 20260509173027 | 64 | 214 | 1.0 | 3.0 | 0.00 | 0.00 | 0.00 | 44 | 1019.5 |
| 20260509171525 | 63 | 218 | 1.0 | 3.0 | 0.00 | 0.00 | 0.00 | 47 | 1019.7 |
| 20260509170023 | 62 | 281 | 1.0 | 3.0 | 0.00 | 0.00 | 0.00 | 48 | 1019.8 |
| 20260509164519 | 62 | 110 | 0.0 | 3.0 | 0.00 | 0.00 | 0.00 | 50 | 1020.0 |
| 20260509163031 | 62 | 75 | 1.0 | 3.0 | 0.00 | 0.00 | 0.00 | 48 | 1020.0 |
| 20260509161515 | 61 | 124 | 0.0 | 2.0 | 0.00 | 0.00 | 0.00 | 50 | 1020.0 |
| 20260509160014 | 60 | 80 | 0.0 | 2.0 | 0.00 | 0.00 | 0.00 | 51 | 1020.0 |
| 20260509154508 | 59 | 91 | 0.0 | 1.0 | 0.00 | 0.00 | 0.00 | 55 | 1020.1 |
| 20260509153008 | 58 | 341 | 0.0 | 2.0 | 0.00 | 0.00 | 0.00 | 56 | 1020.1 |
| 20260509151503 | 57 | 228 | 0.0 | 1.0 | 0.00 | 0.00 | 0.00 | 59 | 1020.1 |
| 20260509144555 | 52 | 227 | 0.0 | 0.0 | 0.00 | 0.00 | 0.00 | 76 | 1020.2 |
| 20260509143053 | 49 | 227 | 0.0 | 0.0 | 0.00 | 0.00 | 0.00 | 88 | 1020.1 |
| 20260509141552 | 45 | 227 | 0.0 | 0.0 | 0.00 | 0.00 | 0.00 | 92 | 1020.2 |
| 20260509140051 | 41 | 227 | 0.0 | 0.0 | 0.00 | 0.00 | 0.00 | 93 | 1020.0 |
| 20260509134550 | 39 | 227 | 0.0 | 0.0 | 0.00 | 0.00 | 0.00 | 94 | 1020.0 |
| 20260509133048 | 38 | 227 | 0.0 | 0.0 | 0.00 | 0.00 | 0.00 | 93 | 1019.9 |
| 20260509131548 | 37 | 227 | 0.0 | 0.0 | 0.00 | 0.00 | 0.00 | 93 | 1019.8 |
| 20260509130051 | 37 | 227 | 0.0 | 0.0 | 0.00 | 0.00 | 0.00 | 92 | 1019.7 |
| 20260509124550 | 37 | 227 | 0.0 | 0.0 | 0.00 | 0.00 | 0.00 | 91 | 1019.5 |
| 20260509123040 | 37 | 227 | 0.0 | 0.0 | 0.00 | 0.00 | 0.00 | 92 | 1019.3 |
| 20260509121539 | 37 | 227 | 0.0 | 0.0 | 0.00 | 0.00 | 0.00 | 92 | 1019.1 |
| 20260509120036 | 38 | 227 | 0.0 | 0.0 | 0.00 | 0.00 | 0.00 | 91 | 1019.1 |
| 20260509114533 | 38 | 227 | 0.0 | 0.0 | 0.00 | 0.00 | 0.00 | 91 | 1019.1 |
| 20260509113033 | 38 | 227 | 0.0 | 0.0 | 0.00 | 0.00 | 0.00 | 90 | 1019.0 |
| 20260509111528 | 39 | 227 | 0.0 | 0.0 | 0.00 | 0.00 | 0.00 | 91 | 1018.8 |
| 20260509110026 | 39 | 227 | 0.0 | 0.0 | 0.00 | 0.00 | 0.00 | 90 | 1018.7 |
| 20260509104524 | 40 | 227 | 0.0 | 0.0 | 0.00 | 0.00 | 0.00 | 91 | 1018.6 |
| 20260509103022 | 40 | 227 | 0.0 | 0.0 | 0.00 | 0.00 | 0.00 | 90 | 1018.4 |
| 20260509101524 | 41 | 227 | 0.0 | 0.0 | 0.00 | 0.00 | 0.00 | 89 | 1018.3 |
| 20260509100016 | 41 | 227 | 0.0 | 0.0 | 0.00 | 0.00 | 0.00 | 89 | 1017.9 |
| 20260509094513 | 42 | 227 | 0.0 | 0.0 | 0.00 | 0.00 | 0.00 | 89 | 1017.8 |
| 20260509093010 | 42 | 227 | 0.0 | 0.0 | 0.00 | 0.00 | 0.00 | 89 | 1017.5 |
| 20260509091510 | 43 | 227 | 0.0 | 0.0 | 0.00 | 0.00 | 0.00 | 88 | 1017.3 |
| 20260509090005 | 44 | 227 | 0.0 | 0.0 | 0.00 | 0.00 | 0.00 | 87 | 1017.1 |
| 20260509084501 | 45 | 227 | 0.0 | 0.0 | 0.00 | 0.00 | 0.00 | 87 | 1017.0 |
| 20260509083103 | 46 | 227 | 0.0 | 0.0 | 0.00 | 0.00 | 0.00 | 87 | 1016.8 |
| 20260509081555 | 47 | 227 | 0.0 | 0.0 | 0.00 | 0.00 | 0.00 | 84 | 1016.7 |
| 20260509080056 | 47 | 227 | 0.0 | 0.0 | 0.00 | 0.00 | 0.00 | 86 | 1016.5 |
| 20260509074553 | 48 | 227 | 0.0 | 0.0 | 0.00 | 0.00 | 0.00 | 83 | 1016.3 |
| 20260509073050 | 50 | 228 | 0.0 | 0.0 | 0.00 | 0.00 | 0.00 | 85 | 1016.1 |
| 20260509071545 | 50 | 233 | 0.0 | 0.0 | 0.00 | 0.00 | 0.00 | 83 | 1015.8 |
| 20260509070042 | 51 | 233 | 0.0 | 0.0 | 0.00 | 0.00 | 0.00 | 82 | 1015.5 |
| 20260509064539 | 51 | 233 | 0.0 | 0.0 | 0.00 | 0.00 | 0.00 | 81 | 1015.5 |
| 20260509063036 | 52 | 233 | 0.0 | 0.0 | 0.00 | 0.00 | 0.00 | 80 | 1015.3 |
| 20260509061535 | 52 | 233 | 0.0 | 1.0 | 0.00 | 0.00 | 0.00 | 79 | 1015.0 |
| 20260509060037 | 52 | 8 | 0.0 | 0.0 | 0.00 | 0.00 | 0.00 | 80 | 1014.9 |
| 20260509054533 | 53 | 8 | 0.0 | 1.0 | 0.00 | 0.00 | 0.00 | 78 | 1014.8 |
| 20260509053048 | 54 | 8 | 0.0 | 1.0 | 0.00 | 0.00 | 0.00 | 76 | 1014.8 |
| 20260509051540 | 54 | 9 | 0.0 | 0.0 | 0.00 | 0.00 | 0.00 | 76 | 1014.6 |
| 20260509050031 | 54 | 8 | 0.0 | 0.0 | 0.00 | 0.00 | 0.00 | 78 | 1014.4 |
| 20260509044527 | 55 | 9 | 0.0 | 0.0 | 0.00 | 0.00 | 0.00 | 76 | 1014.2 |
| 20260509043027 | 55 | 8 | 0.0 | 0.0 | 0.00 | 0.00 | 0.00 | 76 | 1013.9 |
| 20260509041524 | 56 | 8 | 0.0 | 0.0 | 0.00 | 0.00 | 0.00 | 74 | 1013.9 |
| 20260509040028 | 57 | 9 | 0.0 | 0.0 | 0.00 | 0.00 | 0.00 | 73 | 1013.5 |
| 20260509034520 | 57 | 9 | 0.0 | 0.0 | 0.00 | 0.00 | 0.00 | 72 | 1013.4 |
| 20260509033018 | 58 | 8 | 0.0 | 0.0 | 0.00 | 0.00 | 0.00 | 69 | 1013.2 |
| 20260509031517 | 59 | 9 | 0.0 | 0.0 | 0.00 | 0.00 | 0.00 | 68 | 1013.0 |
| 20260509030030 | 60 | 8 | 0.0 | 0.0 | 0.00 | 0.00 | 0.00 | 66 | 1012.8 |
| 20260509024514 | 61 | 9 | 0.0 | 1.0 | 0.00 | 0.00 | 0.00 | 64 | 1012.6 |
| 20260509023012 | 62 | 8 | 0.0 | 0.0 | 0.00 | 0.00 | 0.00 | 65 | 1012.4 |
| 20260509021510 | 63 | 8 | 0.0 | 0.0 | 0.00 | 0.00 | 0.00 | 62 | 1012.3 |
| 20260509020008 | 64 | 8 | 0.0 | 0.0 | 0.00 | 0.00 | 0.00 | 55 | 1012.2 |
| 20260509014508 | 65 | 8 | 0.0 | 0.0 | 0.00 | 0.00 | 0.00 | 56 | 1012.1 |
| 20260509013005 | 65 | 342 | 0.0 | 0.0 | 0.00 | 0.00 | 0.00 | 52 | 1012.1 |
| 20260509011505 | 66 | 342 | 0.0 | 1.0 | 0.00 | 0.00 | 0.00 | 53 | 1012.0 |
| 20260509010005 | 66 | 342 | 0.0 | 0.0 | 0.00 | 0.00 | 0.00 | 52 | 1012.0 |
| 20260509004505 | 67 | 342 | 0.0 | 0.0 | 0.00 | 0.00 | 0.00 | 45 | 1012.0 |
| 20260509003002 | 67 | 122 | 0.0 | 2.0 | 0.00 | 0.00 | 0.00 | 45 | 1012.0 |
| 20260509001502 | 67 | 58 | 0.0 | 1.0 | 0.00 | 0.00 | 0.00 | 44 | 1011.9 |
| 20260509000002 | 67 | 118 | 0.0 | 2.0 | 0.00 | 0.00 | 0.00 | 43 | 1011.8 |
| 20260508234500 | 68 | 90 | 0.0 | 3.0 | 0.00 | 0.00 | 0.00 | 42 | 1011.8 |